User: anonymous   Login
Location: Unspecified
(0.0000°N, 0.0000°E)
Time: 05:00:45
(UTC+00:00)
Language:

OPS 4467A - Orbit

View from above orbital plane
View from above orbital plane
View from above satellite
View from above satellite

Ground track
Ground track

The orbit is defined by the following mean orbital elements,

1 00812U          26110.86801477 +.00000000 +00000-0 +38790-4 0 00006
2 00812  99.8127 259.5046 0004812 243.7067 116.3614 14.24583808    09
Epoch (UTC): 20 April 2026 20:49:56
Eccentricity: 0.0004812
inclination: 99.8127°
perigee height: 806 km
apogee height: 813 km
right ascension of ascending node: 259.5046°
argument of perigee: 243.7067°
revolutions per day: 14.24583808
mean anomaly at epoch: 116.3614°

The dashed part of the orbit path shows where the satellite is in the earth's shadow,  

DLR